Date,TemperatureHighF,TemperatureAvgF,TemperatureLowF,DewpointHighF,DewpointAvgF,DewpointLowF,HumidityHigh,HumidityAvg,HumidityLow,PressureMaxIn,PressureMinIn,WindSpeedMaxMPH,WindSpeedAvgMPH,GustSpeedMaxMPH,PrecipitationSumIn
2013-5-1,63.8,57.5,52.8,56.8,54.2,51.4,96,89,76,30.31,30.17,6,3,0,0.00
2013-5-2,61.3,56.9,52.1,55.2,52.4,48.6,95,85,79,30.33,30.26,5,2,0,0.00
2013-5-3,67.4,57.4,47.7,51.6,48.5,42.0,96,74,52,30.26,30.15,7,2,0,0.00
2013-5-4,60.9,52.7,46.8,51.2,45.5,41.4,93,77,57,30.19,30.06,7,4,0,0.00
2013-5-5,55.1,51.7,47.4,53.2,48.0,43.3,95,87,78,30.09,29.95,6,4,0,0.10
2013-5-6,67.1,58.3,53.9,62.9,56.4,52.8,97,93,80,29.98,29.81,6,2,0,1.88
2013-5-7,70.4,59.0,53.7,58.1,53.5,46.1,98,84,47,29.93,29.83,10,2,0,0.00
2013-5-8,69.3,59.0,51.3,59.3,54.2,49.9,97,85,64,29.99,29.90,8,2,0,0.18
2013-5-9,81.6,64.7,48.9,59.7,54.6,48.1,98,74,39,30.06,29.97,7,2,0,0.01
2013-5-10,75.8,60.4,54.5,60.5,55.9,52.9,95,86,59,30.05,30.01,4,0,0,0.00
2013-5-13,66.5,58.5,47.0,41.3,32.2,25.9,73,39,24,30.18,30.03,8,4,0,0.00
2013-5-14,71.0,56.4,38.3,43.2,38.3,33.7,92,55,30,30.25,30.04,7,2,0,0.00
2013-5-15,88.3,72.1,58.4,61.0,54.2,42.7,71,55,37,30.04,29.87,8,4,0,0.00
2013-5-16,84.2,74.2,61.6,60.9,58.2,54.3,89,60,39,29.96,29.87,8,2,0,0.00
2013-5-17,86.3,74.2,60.0,62.9,60.0,57.3,92,64,40,30.06,29.95,4,1,0,0.00
2013-5-18,74.7,67.9,61.6,66.4,63.0,59.6,95,85,74,30.13,30.04,4,1,0,0.13
2013-5-19,74.8,67.7,63.1,68.1,64.9,61.5,96,91,78,30.11,30.02,4,2,0,0.23
2013-5-20,79.0,70.2,66.3,72.1,67.0,64.6,97,90,67,30.09,29.99,4,1,0,0.06
2013-5-21,87.8,74.8,66.5,71.7,68.1,64.1,98,81,47,30.03,29.90,5,2,0,0.00
2013-5-22,83.5,74.3,65.8,68.6,66.3,62.8,94,77,58,29.99,29.86,8,3,0,0.10
2013-5-23,76.7,68.9,62.9,67.9,64.7,60.5,96,87,71,29.92,29.79,9,2,0,0.32
2013-5-24,67.4,63.0,52.0,58.0,45.0,37.2,83,53,37,30.18,29.89,12,6,0,0.00
2013-5-25,75.1,58.9,42.7,45.1,37.9,29.3,88,51,23,30.28,30.12,8,3,0,0.00
2013-5-26,75.3,62.0,49.7,52.2,45.2,36.4,83,57,30,30.27,30.15,6,1,0,0.00
2013-5-27,79.8,66.4,51.0,57.0,52.7,48.8,93,65,41,30.27,30.12,5,2,0,0.00
2013-5-28,83.8,73.1,63.1,64.8,62.0,55.3,91,70,48,30.21,30.11,7,3,0,0.00
2013-5-29,84.8,74.8,64.0,66.4,62.3,59.4,86,67,45,30.21,30.13,6,3,0,0.00
2013-5-30,85.0,74.2,63.9,65.5,62.5,57.5,93,69,41,30.25,30.15,6,2,0,0.00
2013-5-31,84.8,75.5,64.5,68.0,64.7,60.6,93,71,51,30.19,30.07,6,2,0,0.00